Regional Weather Roundup
Issued by NWS Green Bay, WI

Home | Current Version | Previous Version | Graphics & Text | Print | Product List | Glossary Off
Versions: 1 2 3 4 5 6 7 8 9 10 11 12 13 14 15 16 17 18 19 20 21 22 23 24 25 26 27 28 29 30 31 32 33 34 35 36 37 38 39 40 41 42 43 44 45 46 47 48 49 50

000
ASUS43 KGRB 311510
RWRGRB

NORTH-CENTRAL AND NORTHEAST WISCONSIN REGIONAL WEATHER ROUNDUP
NATIONAL WEATHER SERVICE GREEN BAY WI
1000 AM CDT THU JUL 31 2014

WIZ005-009-010>012-018-019-311600-
NORTH CENTRAL WISCONSIN

CITY           SKY/WX    TMP DP  RH WIND       PRES   REMARKS
IRONWOOD       NOT AVBL
MANITOWISH WTR SUNNY     69  53  56 NW8       29.99F
ARBOR VITAE    SUNNY     72  59  63 NW8       30.00S
EAGLE RIVER    SUNNY     67  56  69 NW6       29.99S
LAND O LAKES   SUNNY     68  57  67 W8        30.00S
RHINELANDER    SUNNY     68  55  63 NW7       30.01S
PHILLIPS       SUNNY     64  60  87 CALM      30.00F
ANTIGO         MOSUNNY   62  60  94 CALM      30.01S FOG
TOMAHAWK       SUNNY     63  62  96 CALM      30.01S
MERRILL        SUNNY     65  62  88 CALM      30.00S
$$

WIZ013-073-311600-
NORTHEAST WISCONSIN

CITY           SKY/WX    TMP DP  RH WIND       PRES   REMARKS
IRON MOUNTAIN  SUNNY     69  57  65 W6        29.96S
MARINETTE      SUNNY     66  61  82 SW6       29.96S
OCONTO         SUNNY     68  62  80 SW3       29.97F
$$

WIZ017-030-035>037-045-311600-
CENTRAL WISCONSIN

CITY           SKY/WX    TMP DP  RH WIND       PRES   REMARKS
MEDFORD        PTSUNNY   66  62  86 W5        30.02R
WAUSAU         MOSUNNY   69  61  75 W6        29.99S
MOSINEE        SUNNY     70  63  78 W7        30.01S
MARSHFIELD     SUNNY     71  63  75 W10       30.01S
WISC RAPIDS    SUNNY     71  63  75 W7        30.02S
STEVENS POINT  MOSUNNY   68  59  74 NW5       30.01S
WAUPACA        MOSUNNY   74  62  65 W7        30.00S
SHAWANO        SUNNY     69  62  77 CALM      29.98F
CLINTONVILLE   SUNNY     70  59  68 NW5       29.99S
$$

WIZ038-039-048-051-311600-
FOX VALLEY

CITY           SKY/WX    TMP DP  RH WIND       PRES   REMARKS
NWS GREEN BAY  MOSUNNY   69  63  81 SW3       29.98F
APPLETON       MOSUNNY   66  63  88 W6        30.00S
OSHKOSH        SUNNY     71  61  70 W7        30.00R
FOND DU LAC    SUNNY     71  61  70 SW6       30.01S
$$

WIZ022-050-052-311600-
EAST CENTRAL WISCONSIN

CITY           SKY/WX    TMP DP  RH WIND       PRES   REMARKS
STURGEON BAY   SUNNY     66  57  72 SW7       29.98F
MANITOWOC      SUNNY     70  62  76 VRB6      29.99S
SHEBOYGAN      SUNNY     71  61  70 NW8       30.00S
$$

LMZ563-521-522-541>543-311600-
LAKESHORE

STATION/POSITION TIME  TEMP    WIND        PRES    VSBY  WAVE
                       AIR SEA DIR/SP/G                  HT/PER
                 (UTC) (F)     (DEG/KT/KT) (MB)    (MI)  (FT/S)
SHEBOYGAN LKSHOR 1500   70     300/  8/  9 1015.6F
KEWAUNEE LKSHORE 1500   65     120/  4/  5 1014.7F
ALGOMA MARINA    1500          220/  6/  7   N/A
NORTHPORT PIER   1500   63     110/  4/  4 1014.6S
N MID LAKE BUOY  1500   56 54  220/  8/ 10 1014.2R         1
S GREEN BAY BUOY 1500   63 67  230/  4     1016.0F
SISTER BAY LKSHO 1400   69     320/  7/  8   N/A
STURGEON BAY CG  1500   60 55  170/  4     1015.1      6   1
CHAMBERS ISLAND  1500   66     200/  3/  5 1014.9R
MENOMINEE LKSHOR 1500   64     170/  6/  7 1015.4S
$$


USA.gov is the U.S. government's official web portal to all federal, state and local government web resources and services.